Location: Unspecified
(0.0000°N, 0.0000°E)
Time: 17:20:26
(UTC+00:00)

N. Korean satellite - Pass Details

Date: 16 January 2020
Orbit: 454 x 507 km, 97.2° (Epoch: 22 January)

Event Time Altitude Azimuth Distance (km) Brightness Sun altitude
Rises 05:03:46 0° 24° (NNE) 2,522 10.2 -15.3°
Reaches altitude 10° 05:05:54 10° 33° (NNE) 1,656 9.4 -14.8°
Maximum altitude 05:09:12 37° 101° (E) 776 8.2 -14.0°
Drops below altitude 10° 05:12:36 10° 170° (S) 1,692 9.7 -13.3°
Sets 05:14:47 0° 178° (S) 2,585 10.6 -12.8°
